Regional Weather Roundup
Issued by NWS

Home | Current Version | Previous Version | Graphics & Text | Print | Product List | Glossary On
Versions: 1 2 3 4 5 6 7 8 9 10 11 12 13 14 15 16 17 18 19 20 21 22 23 24 25 26 27 28 29 30 31 32 33 34 35 36 37 38 39 40 41 42 43 44 45 46 47 48 49 50
000
ASUS43 KBIS 280210
RWRND

NORTH DAKOTA REGIONAL WEATHER ROUNDUP
NATIONAL WEATHER SERVICE BISMARCK ND
800 PM CST FRI FEB 27 2015

NOTE: "FAIR" INDICATES FEW OR NO CLOUDS BELOW 12,000 FEET WITH NO
SIGNIFICANT WEATHER AND/OR OBSTRUCTIONS TO VISIBILITY.


NDZ001>003-009>011-017-280300-
NORTHWEST NORTH DAKOTA

CITY           SKY/WX    TMP DP  RH WIND       PRES   REMARKS
WILLISTON      CLOUDY    22   7  52 S5        30.05S WCI  16
MINOT          PTCLDY    10   0  63 SE3       30.15S
MINOT AFB      MOCLDY     6   0  76 S13       30.13F WCI -10
$$

NDZ018>021-031>035-040>046-280300-
SOUTHWEST NORTH DAKOTA

CITY           SKY/WX    TMP DP  RH WIND       PRES   REMARKS
BISMARCK       PTCLDY     9   2  73 E5        30.21R WCI   1
DICKINSON      MOCLDY    17   6  62 SE12      30.02S WCI   4
GARRISON         N/A      8   1  73 SE9       30.15S WCI  -5
HETTINGER ARPT CLOUDY    21   5  50 SE10      30.05R WCI  10
$$

NDZ004>008-012>016-024-026-027-054-280300-
NORTHEAST NORTH DAKOTA

CITY           SKY/WX    TMP DP  RH WIND       PRES   REMARKS
GRAND FORKS    PTCLDY     6  -2  69 S10       30.35S WCI  -9
GRND FRKS AFB  PTCLDY     5  -3  70 S10       30.34S WCI -10
DEVILS LAKE    PTCLDY     7  -2  66 S6        30.26S WCI  -3
$$

NDZ022-023-025-028>030-036>039-047>053-280300-
SOUTHEAST NORTH DAKOTA

CITY           SKY/WX    TMP DP  RH WIND       PRES   REMARKS
FARGO          CLEAR      7  -3  64 S8        30.39S WCI  -6
JAMESTOWN      CLEAR      5  -1  76 S12       30.28R WCI -11
$$



USA.gov is the U.S. government's official web portal to all federal, state and local government web resources and services.